Powrót do katalogu

COSMOS 2374

GLONASS

AktywnyNawigacjaMEO
NORAD 26566·PAYLOAD·🇷🇺 Russia

Wystrzelony Oct 13, 2000 z Baikonur Cosmodrome

Loading…

Następne Przeloty (najbliższe 24 godziny)

TLE

ŚwieżeSource: Space-Track

Epoka: Sep 14, 2026, 03:11 UTC

1 26566U 00063C   26257.13276553 -.00000051  00000-0  00000-0 0  9995
2 26566  65.1191 310.5297 0080159 208.8425 136.0696  2.13099784201646

Śledź COSMOS 2374 w czasie rzeczywistym z AllMySat

Download on the App Store